Wind_Speed
19 18 18 19 21 22 21 22 22 22 22 21 21 21 20 20 20 21 21 21 21 21 21 21 21 21 20 20 19 19 20 20 20 20 20 21 22 22 22 23 23 23 23
21 20 19 20 21 22 22 22 23 23 22 21 22 21 22 22 22 22 22 22 23 23 23 22 22 22 22 21 21 21 20 20 20 20 20 20 21 22 22 23 24 24 24
20 19 20 22 22 22 22 23 23 23 22 22 22 22 23 23 23 23 23 24 24 23 23 23 23 23 23 22 21 22 21 21 21 21 21 20 20 20 22 23 24 24 24
20 22 22 22 23 23 22 23 23 22 22 23 23 23 22 23 23 23 23 24 24 23 23 23 23 23 24 23 23 23 22 22 22 22 22 22 22 22 22 23 24 24 24
19 21 22 22 23 24 23 24 23 23 23 23 24 24 24 23 22 22 23 23 24 23 23 23 24 24 25 25 24 24 24 24 23 23 23 23 23 23 23 23 24 25 25
20 22 23 23 23 23 24 24 23 23 22 23 24 24 24 23 22 22 23 23 23 23 23 23 24 25 25 24 25 25 25 25 25 24 24 24 24 24 24 24 24 24 26
20 22 23 23 23 24 24 23 23 23 23 23 24 24 24 23 23 23 23 22 22 22 23 24 24 25 25 26 26 25 25 26 25 25 25 25 25 25 25 25 24 24 25
21 22 22 23 23 24 24 22 22 23 23 23 24 24 24 23 22 22 22 22 22 23 23 24 24 25 25 26 26 26 26 26 26 25 25 25 26 26 26 26 26 26 26
21 22 22 23 23 24 24 23 22 23 23 24 24 23 22 21 21 21 21 22 22 23 24 24 24 24 25 26 26 26 26 26 26 26 26 27 27 27 27 26 27 27 27
23 23 22 22 23 23 24 24 23 23 24 24 24 23 22 21 21 21 22 22 22 23 23 24 24 24 24 25 25 26 26 26 27 27 27 27 27 28 27 26 26 26 26
22 23 23 22 22 23 24 22 23 24 24 23 23 23 22 21 21 22 22 22 23 23 23 23 24 24 24 24 25 26 27 27 27 28 28 28 28 28 28 26 26 25 26
22 23 23 23 23 23 23 23 24 24 24 24 23 23 22 22 22 22 22 22 22 23 23 23 23 24 25 24 24 25 25 26 26 27 27 27 27 27 27 26 26 25 25
22 22 23 23 23 23 23 24 25 25 24 24 24 23 23 22 22 22 22 22 22 22 23 23 23 24 24 24 24 24 25 25 26 27 26 26 26 26 26 25 25 25 25
22 23 23 23 23 24 24 25 25 26 25 25 24 24 24 23 23 22 21 21 22 22 23 23 23 23 22 23 23 24 25 25 25 25 25 25 24 24 25 26 26 25 25
22 23 24 23 23 25 25 26 26 26 26 26 24 24 24 24 23 22 22 22 22 23 22 22 23 23 23 22 23 23 24 24 24 24 24 24 24 24 25 25 26 26 25
24 24 24 25 25 26 26 27 27 26 26 25 24 24 24 24 23 23 23 24 24 24 23 22 22 22 22 23 23 23 23 23 23 23 22 23 24 23 24 24 24 25 25
25 24 24 25 27 28 27 27 26 26 25 25 24 24 24 24 24 25 25 25 25 24 23 23 23 23 23 23 23 23 22 22 22 22 22 23 23 22 22 23 23 23 24
24 24 25 27 27 27 27 26 26 26 26 25 25 24 25 25 26 27 26 26 24 24 24 24 24 23 23 23 22 22 21 20 20 20 21 22 23 22 23 23 23 23 23
24 26 27 28 28 28 27 27 27 27 26 26 26 26 26 26 26 26 26 25 24 24 24 23 23 23 22 21 20 20 19 19 19 19 20 20 21 22 23 23 23 23 22
26 27 28 28 28 28 28 28 27 27 27 27 27 27 27 27 26 26 25 24 23 23 23 22 22 21 19 19 18 18 18 19 19 19 19 19 19 20 21 22 22 23 23
27 28 28 28 28 28 28 27 27 26 26 27 27 27 27 27 26 25 24 23 22 21 21 21 20 20 19 18 19 18 17 17 18 18 18 19 19 19 21 22 23 23 24
27 27 27 27 28 28 27 27 27 26 27 27 26 26 26 26 25 24 24 22 21 20 20 20 19 18 18 18 18 17 17 17 17 18 18 18 18 19 19 20 21 23 23
27 27 27 27 28 28 28 28 27 27 27 26 26 26 25 24 24 24 23 21 20 20 19 19 18 18 18 17 17 16 15 16 16 17 17 17 17 17 18 19 20 21 22
27 27 27 28 28 27 27 27 27 27 26 26 26 25 25 24 24 23 22 21 20 19 19 18 18 18 18 17 16 15 15 16 16 17 17 16 16 16 17 18 19 19 19
27 27 27 28 28 27 27 27 27 26 26 26 26 26 26 25 23 23 22 21 20 19 19 18 17 17 17 17 16 16 16 16 16 16 15 14 14 15 15 16 17 18 19
27 28 28 28 28 27 28 28 28 27 27 27 26 26 25 24 23 22 21 21 21 20 19 18 18 18 18 17 16 16 16 16 16 15 14 14 14 15 16 17 17 18 18
Wind_Direction
312 313 317 319 318 317 315 315 312 310 306 303 302 300 297 295 292 291 290 289 287 284 281 276 275 274 273 274 274 274 274 276 275 272 270 266 264 262 261 258 254 254 255
312 314 314 316 319 318 316 315 313 312 310 306 303 300 297 295 291 290 288 287 286 284 281 276 274 273 273 274 275 275 272 272 274 272 268 268 266 264 262 260 257 256 255
312 316 317 319 317 315 314 313 312 311 309 307 305 303 299 294 291 288 285 284 284 283 281 278 274 272 272 273 273 273 272 271 273 274 271 269 266 266 264 262 259 257 255
313 316 316 315 316 314 314 314 313 312 309 307 305 303 301 296 291 287 284 283 282 280 280 277 273 272 271 272 271 270 271 270 271 273 272 270 267 266 266 262 259 258 256
311 315 315 316 316 316 316 317 315 312 309 307 306 305 302 298 293 289 286 283 282 280 279 276 273 273 273 271 270 270 270 269 270 272 272 270 269 269 268 265 263 259 256
309 311 314 315 316 316 317 318 316 313 311 308 308 306 303 301 296 292 289 285 282 280 280 278 275 274 272 269 269 270 270 268 268 270 269 269 270 270 269 267 262 259 256
309 312 313 313 316 317 316 317 316 315 313 311 310 309 306 301 297 294 292 288 284 282 281 279 276 274 273 272 271 271 270 268 267 268 269 269 268 268 267 266 264 260 257
310 312 312 314 314 316 315 314 316 315 313 311 310 310 307 303 299 295 293 289 287 285 283 280 277 275 274 274 272 271 271 269 268 269 271 270 268 268 267 267 265 262 260
310 311 311 313 314 314 315 315 316 315 314 313 312 311 308 304 300 297 293 289 287 287 285 281 279 277 274 273 271 271 270 269 269 271 271 270 269 268 267 266 265 263 260
311 310 311 313 313 312 314 314 314 316 316 314 313 311 309 304 302 299 296 292 290 290 287 285 282 279 277 275 272 270 270 269 269 270 270 269 269 267 266 265 264 260 257
310 309 310 310 313 314 317 315 316 317 315 312 311 310 308 307 308 305 300 296 294 292 291 289 285 281 280 278 275 272 270 269 269 270 270 269 268 267 266 264 263 261 257
310 311 311 314 316 316 317 317 317 318 318 315 311 309 307 307 308 310 305 301 299 297 293 289 286 284 282 279 275 272 270 269 270 270 270 268 267 266 263 262 262 261 260
309 311 313 316 316 316 317 318 319 318 318 316 313 311 311 307 308 309 306 304 301 300 296 291 288 286 283 280 278 274 272 271 271 271 270 268 265 263 259 259 260 260 259
309 311 313 314 315 317 317 319 321 320 318 315 313 312 313 313 312 310 306 305 302 301 299 296 293 290 284 281 280 277 274 272 272 271 269 267 265 262 260 259 259 258 257
308 309 312 311 311 316 317 318 319 319 318 317 315 315 315 315 313 311 309 306 305 304 302 299 296 291 285 283 281 280 277 275 273 271 267 264 265 262 261 261 259 257 256
306 307 311 311 310 315 318 317 317 317 317 317 316 315 315 314 313 312 309 307 307 304 302 301 299 295 287 284 282 281 279 276 273 269 265 264 265 262 261 261 259 257 256
306 308 310 310 313 315 315 315 316 316 316 316 316 316 316 315 314 313 311 309 308 306 304 302 300 296 290 286 284 284 282 279 273 270 267 266 265 260 258 259 258 257 255
304 306 310 312 314 316 316 315 315 315 316 317 318 317 316 315 314 313 313 311 309 306 303 301 300 297 292 288 287 285 281 278 274 272 270 267 265 260 258 259 259 258 257
305 308 309 311 314 315 315 314 315 315 315 316 317 315 314 314 313 312 312 311 309 309 306 305 304 300 296 291 288 285 280 277 274 275 274 270 265 260 258 259 259 258 257
306 307 308 309 311 312 313 313 314 314 314 314 315 314 314 313 312 312 312 310 309 309 309 308 306 303 300 295 289 286 282 279 275 274 275 273 269 263 259 258 257 257 257
303 304 306 308 309 310 311 311 311 311 311 311 312 312 313 312 312 312 312 311 310 310 309 308 306 304 302 298 292 289 286 282 278 277 277 276 272 266 261 259 257 255 256
302 303 305 308 310 311 311 310 309 309 309 309 310 310 310 310 311 311 311 310 309 308 308 307 306 306 306 304 301 295 289 285 281 279 279 277 273 268 261 258 256 255 256
300 302 305 307 309 310 310 310 310 310 309 309 310 310 310 311 312 312 310 308 307 307 308 307 306 306 306 305 303 300 293 287 283 280 279 278 273 267 262 258 256 256 257
301 303 305 306 308 309 309 310 310 310 311 312 311 311 312 312 312 312 311 309 309 307 306 305 306 307 305 303 301 299 295 291 287 283 279 277 274 270 264 260 257 257 257
300 302 303 304 306 307 307 308 308 308 309 310 310 311 313 314 313 313 311 309 309 310 308 306 306 306 305 304 303 301 298 295 291 287 283 280 275 271 266 261 259 259 260
299 301 302 304 305 306 306 306 307 307 308 309 309 309 310 310 311 311 311 309 308 308 307 305 304 304 302 302 303 303 299 296 296 295 290 284 277 273 269 265 263 263 264
Height
5860 5857 5855 5853 5850 5848 5845 5843 5841 5838 5835 5833 5831 5829 5827 5825 5823 5821 5819 5817 5816 5815 5814 5814 5813 5813 5813 5812 5812 5811 5811 5810 5809 5809 5809 5808 5808 5808 5809 5809 5810 5811 5812
5857 5854 5851 5849 5847 5844 5842 5839 5836 5833 5831 5828 5826 5823 5821 5818 5816 5814 5812 5811 5809 5808 5807 5807 5806 5806 5806 5806 5805 5805 5804 5804 5803 5803 5802 5803 5803 5803 5803 5803 5804 5805 5806
5854 5851 5848 5846 5844 5841 5838 5835 5831 5829 5826 5823 5820 5817 5814 5811 5809 5807 5806 5804 5802 5801 5800 5799 5799 5799 5799 5799 5798 5798 5798 5798 5797 5796 5796 5796 5797 5797 5797 5797 5798 5798 5799
5851 5848 5846 5844 5841 5837 5834 5830 5827 5823 5820 5817 5814 5811 5808 5805 5802 5800 5798 5797 5795 5794 5793 5792 5791 5791 5791 5791 5791 5791 5791 5791 5790 5790 5789 5790 5790 5791 5791 5791 5791 5791 5792
5847 5845 5842 5840 5836 5832 5829 5825 5821 5818 5815 5812 5808 5805 5802 5799 5796 5794 5792 5790 5789 5787 5786 5785 5784 5784 5784 5784 5784 5784 5784 5783 5783 5783 5782 5782 5782 5783 5784 5784 5784 5785 5785
5843 5841 5838 5835 5831 5827 5823 5820 5816 5813 5809 5806 5803 5799 5795 5792 5790 5787 5785 5784 5782 5780 5779 5778 5777 5776 5776 5776 5776 5776 5776 5776 5775 5775 5775 5775 5775 5775 5775 5776 5776 5776 5777
5839 5837 5834 5831 5827 5823 5819 5815 5811 5808 5804 5801 5797 5793 5789 5786 5783 5780 5778 5776 5775 5773 5772 5770 5770 5769 5768 5768 5768 5768 5768 5767 5767 5767 5767 5767 5767 5767 5767 5767 5768 5768 5769
5835 5833 5830 5826 5821 5817 5814 5810 5806 5803 5799 5795 5791 5787 5783 5780 5776 5774 5772 5770 5768 5766 5765 5763 5762 5761 5760 5760 5760 5760 5759 5759 5759 5759 5759 5759 5759 5759 5759 5759 5760 5760 5761
5830 5828 5825 5821 5817 5813 5809 5805 5801 5797 5793 5790 5786 5782 5778 5774 5771 5768 5766 5763 5761 5759 5757 5756 5755 5754 5753 5752 5752 5752 5751 5751 5751 5751 5751 5751 5751 5751 5751 5751 5751 5752 5752
5825 5822 5819 5815 5811 5808 5805 5800 5796 5792 5788 5784 5780 5776 5772 5768 5765 5762 5759 5757 5755 5753 5751 5749 5747 5746 5745 5744 5744 5743 5743 5743 5742 5742 5742 5742 5742 5742 5742 5742 5742 5743 5744
5820 5817 5814 5810 5806 5803 5799 5794 5791 5786 5782 5778 5774 5770 5766 5763 5759 5756 5753 5751 5748 5746 5744 5742 5740 5739 5738 5737 5736 5735 5734 5734 5734 5734 5733 5733 5733 5734 5734 5734 5734 5734 5735
5815 5812 5809 5805 5801 5798 5794 5789 5785 5782 5777 5773 5769 5765 5761 5757 5754 5750 5747 5744 5742 5739 5737 5735 5733 5731 5729 5728 5728 5727 5726 5726 5725 5725 5725 5725 5725 5725 5725 5726 5726 5727 5728
5811 5807 5804 5800 5797 5793 5788 5785 5781 5776 5772 5768 5763 5759 5755 5752 5748 5744 5741 5738 5735 5733 5730 5728 5726 5724 5722 5720 5719 5718 5718 5717 5717 5716 5716 5716 5717 5717 5717 5718 5719 5719 5720
5806 5803 5800 5796 5792 5788 5784 5780 5775 5771 5767 5762 5758 5753 5749 5746 5743 5739 5735 5732 5730 5727 5724 5722 5719 5717 5715 5713 5712 5710 5710 5709 5708 5708 5708 5708 5708 5709 5709 5710 5711 5711 5712
5801 5799 5795 5791 5787 5783 5779 5775 5771 5766 5762 5757 5753 5748 5745 5741 5737 5734 5730 5727 5724 5721 5718 5715 5713 5710 5708 5706 5705 5703 5702 5701 5700 5700 5700 5700 5700 5701 5701 5702 5703 5704 5705
5796 5793 5789 5786 5782 5778 5774 5770 5766 5762 5757 5753 5748 5744 5740 5736 5732 5729 5725 5722 5718 5715 5712 5709 5706 5704 5701 5700 5698 5696 5695 5694 5693 5693 5692 5692 5693 5693 5694 5695 5695 5696 5697
5791 5787 5784 5780 5776 5772 5768 5765 5761 5756 5752 5748 5743 5739 5735 5731 5727 5723 5720 5716 5712 5709 5706 5703 5700 5698 5695 5693 5691 5689 5688 5687 5686 5686 5686 5685 5685 5686 5687 5687 5688 5689 5690
5785 5781 5778 5774 5770 5767 5763 5759 5755 5751 5747 5742 5738 5734 5730 5726 5722 5718 5714 5710 5707 5704 5701 5698 5695 5691 5689 5686 5684 5682 5681 5680 5679 5679 5678 5678 5678 5679 5680 5680 5681 5683 5684
5779 5776 5772 5769 5765 5761 5757 5753 5749 5745 5741 5737 5733 5729 5725 5721 5717 5713 5709 5705 5702 5698 5695 5692 5689 5685 5683 5680 5678 5676 5675 5674 5673 5673 5672 5671 5671 5672 5672 5674 5675 5676 5677
5773 5770 5766 5763 5759 5756 5751 5747 5744 5739 5735 5732 5728 5723 5719 5715 5711 5707 5703 5700 5696 5693 5689 5686 5683 5680 5677 5675 5672 5670 5669 5668 5667 5666 5665 5664 5664 5664 5665 5666 5668 5669 5670
5768 5764 5761 5757 5753 5750 5746 5742 5738 5734 5730 5726 5722 5718 5714 5710 5706 5702 5698 5694 5691 5688 5684 5681 5678 5675 5672 5670 5667 5665 5663 5662 5661 5660 5659 5658 5657 5657 5658 5659 5660 5661 5663
5761 5758 5754 5751 5747 5744 5740 5736 5732 5729 5725 5721 5716 5712 5708 5704 5700 5696 5693 5689 5686 5683 5680 5677 5674 5671 5668 5665 5662 5660 5658 5656 5655 5654 5653 5652 5651 5651 5651 5651 5652 5654 5655
5755 5752 5748 5745 5741 5738 5734 5730 5727 5723 5719 5715 5711 5707 5703 5699 5695 5691 5688 5684 5681 5678 5675 5672 5669 5666 5663 5660 5658 5655 5653 5651 5650 5648 5647 5646 5645 5644 5644 5645 5645 5646 5648
5748 5745 5742 5739 5735 5731 5728 5724 5720 5716 5712 5709 5705 5701 5697 5693 5690 5685 5682 5679 5676 5673 5670 5667 5664 5661 5659 5656 5653 5651 5648 5646 5644 5642 5641 5640 5639 5638 5638 5638 5639 5640 5641
5741 5738 5735 5732 5728 5725 5721 5718 5714 5710 5706 5703 5699 5695 5691 5688 5684 5681 5677 5674 5671 5667 5665 5662 5659 5657 5654 5651 5648 5646 5643 5641 5639 5637 5635 5634 5634 5633 5633 5633 5633 5634 5634
5734 5731 5728 5725 5721 5718 5714 5711 5707 5703 5700 5696 5693 5689 5685 5682 5679 5675 5672 5669 5666 5663 5659 5657 5654 5651 5649 5646 5644 5641 5638 5636 5634 5632 5630 5629 5628 5628 5628 5627 5628 5628 5628